CST,Max TemperatureF,Mean TemperatureF,Min TemperatureF,Max Dew PointF,MeanDew PointF,Min DewpointF,Max Humidity, Mean Humidity, Min Humidity, Max Sea Level PressureIn, Mean Sea Level PressureIn, Min Sea Level PressureIn, Max VisibilityMiles, Mean VisibilityMiles, Min VisibilityMiles, Max Wind SpeedMPH, Mean Wind SpeedMPH, Max Gust SpeedMPH,PrecipitationIn, CloudCover, Events, WindDirDegrees
2013-1-1,49,44,38,48,44,35,100,93,85,30.24,30.08,30.01,10,8,2,20,10,23,1.01,8,Rain,1
2013-1-2,39,36,32,34,30,25,92,78,64,30.31,30.26,30.19,10,10,9,14,9,,0.00,1,,5
2013-1-3,46,37,28,34,31,27,92,75,58,30.47,30.42,30.36,10,10,9,9,4,12,0.00,0,,4
2013-1-4,50,40,30,37,32,29,92,73,54,30.55,30.47,30.43,10,9,6,8,2,21,0.00,2,,32
2013-1-5,45,39,33,41,38,32,96,90,83,30.45,30.36,30.30,10,9,6,12,3,14,0.03,7,Rain,196
2013-1-6,54,43,31,43,37,30,100,80,59,30.40,30.33,30.27,10,5,0,12,3,15,0.00,2,Fog,322
2013-1-7,50,41,31,37,33,28,92,77,61,30.44,30.34,30.24,10,10,8,16,4,,0.00,0,,47
2013-1-8,59,47,34,49,42,33,86,74,61,30.27,30.19,30.13,10,10,10,13,6,17,0.00,4,,116
2013-1-9,58,56,53,58,55,51,100,89,77,30.28,30.22,30.17,10,4,2,14,8,20,1.87,8,Rain,67
2013-1-10,68,63,58,63,61,57,100,94,87,30.22,30.08,29.92,10,6,2,23,13,30,1.62,8,Rain,161
2013-1-11,69,60,50,64,58,52,97,78,59,30.08,30.00,29.94,10,10,10,15,9,18,0.01,3,,180
2013-1-12,75,71,66,70,66,64,100,87,73,29.97,29.90,29.76,10,7,2,24,14,32,0.16,6,Rain,180
2013-1-13,70,54,37,66,46,32,100,90,79,30.26,29.96,29.78,10,6,1,25,15,31,2.24,8,Rain-Thunderstorm,345
2013-1-14,37,34,30,31,28,27,92,85,78,30.40,30.29,30.21,10,8,2,26,16,33,0.14,8,Rain-Snow,15
2013-1-15,32,31,30,31,28,27,92,89,85,30.25,30.15,30.09,10,7,2,21,14,26,0.25,8,Rain,13
2013-1-16,36,34,31,32,30,28,92,87,82,30.22,30.18,30.11,10,10,8,17,8,21,T,8,,347
2013-1-17,52,44,35,37,33,28,92,73,54,30.53,30.33,30.20,10,10,10,17,8,21,0.00,3,,329
2013-1-18,53,42,30,36,32,28,92,68,44,30.62,30.51,30.38,10,10,7,10,2,13,0.00,0,,97
2013-1-19,58,45,31,39,35,29,96,68,39,30.40,30.32,30.26,10,10,9,14,6,18,0.00,0,,192
2013-1-20,61,48,34,45,39,34,100,76,51,30.29,30.23,30.17,10,9,1,10,2,13,0.00,0,,300
2013-1-21,48,40,32,37,30,25,100,71,42,30.35,30.29,30.19,10,10,10,25,11,31,0.00,0,,25
2013-1-22,46,38,30,37,28,24,85,65,45,30.45,30.38,30.32,10,10,10,10,5,29,0.00,5,,56
2013-1-23,66,54,41,48,41,33,86,69,52,30.37,30.29,30.22,10,10,10,15,7,,0.00,4,,179
2013-1-24,57,52,47,51,40,34,89,71,52,30.37,30.28,30.19,10,10,9,20,10,24,0.00,7,,21
2013-1-25,61,52,42,57,44,37,100,86,71,30.26,30.17,30.09,10,6,2,22,10,29,0.05,8,Rain,356
2013-1-26,48,44,40,45,40,36,93,82,70,30.35,30.28,30.23,10,8,4,13,6,16,0.05,8,Rain,72
2013-1-27,69,57,45,57,51,43,93,81,68,30.27,30.21,30.15,10,10,8,16,8,21,T,3,,144
2013-1-28,69,65,60,62,59,56,90,83,76,30.22,30.14,30.08,10,10,10,18,11,22,0.00,7,,165
2013-1-29,76,69,61,68,63,59,93,79,64,30.06,29.79,29.54,10,8,2,37,17,46,0.57,7,Rain-Thunderstorm,171
2013-1-30,69,54,38,61,45,28,93,73,53,30.13,29.79,29.64,10,7,1,33,15,43,1.11,6,Rain-Thunderstorm,275
2013-1-31,58,45,31,34,31,28,89,63,36,30.29,30.20,30.13,10,10,10,22,10,26,0.00,0,,230